Regional Weather Roundup
Issued by NWS Sioux Falls, SD

Home | Current Version | Previous Version | Graphics & Text | Print | Product List | Glossary Off
Versions: 1 2 3 4 5 6 7 8 9 10 11 12 13 14 15 16 17 18 19 20 21 22 23 24 25 26 27 28 29 30 31 32 33 34 35 36 37 38 39 40 41 42 43 44 45 46 47 48 49 50

554
ASUS43 KFSD 241210
RWRFSD

WEATHER ROUNDUP FOR SE SOUTH DAKOTA/SW MINNESOTA/NW IOWA
NATIONAL WEATHER SERVICE SIOUX FALLS SD
700 AM CDT SUN JUL 24 2016

NOTE: "FAIR" INDICATES FEW OR NO CLOUDS BELOW 12,000 FEET WITH NO
SIGNIFICANT WEATHER AND OR OBSTRUCTIONS TO VISIBILITY.


SDZ038>040-050-052>070-241300-
SOUTHEAST SOUTH DAKOTA

CITY           SKY/WX    TMP DP  RH WIND       PRES   REMARKS
BROOKINGS      CLEAR     66  64  93 NW6       29.94
CHAMBERLAIN    MOCLDY    70  59  66 N7        30.00S
6HR MIN TEMP:  65; 6HR MAX TEMP:  71;

HURON          PTCLDY    62  58  86 CALM      29.95R
6HR MIN TEMP:  60; 6HR MAX TEMP:  67;

MADISON        FAIR      64  64 100 NW8       29.96R
MITCHELL       CLOUDY    65  60  84 NW7       29.95R
6HR MIN TEMP:  64; 6HR MAX TEMP:  72;

SIOUX FALLS    MOCLDY    69  65  86 NW7       29.93R
6HR MIN TEMP:  67; 6HR MAX TEMP:  78;

WINNER         LGT RAIN  66  56  70 NW10      30.06R
YANKTON        CLOUDY    66  64  94 CALM      29.91R
$$

MNZ071-072-080-081-089-090-097-098-241300-
SOUTHWEST MINNESOTA

CITY           SKY/WX    TMP DP  RH WIND       PRES   REMARKS
FAIRMONT       CLEAR     72  48  43 NW13      29.86R
JACKSON        CLEAR     70  64  83 NW7       29.91R
LUVERNE        PTCLDY    66  63  88 NW6       29.93R
MARSHALL       CLEAR     67  63  87 NW8       29.92R
6HR MIN TEMP:  65; 6HR MAX TEMP:  80;

MONTEVIDEO     CLEAR     68  66  94 N12       29.91R
REDWOOD FALLS  CLEAR     69  66  90 NW9       29.88R
TRACY          CLEAR     69  63  81 W5        29.92R
WINDOM         CLEAR     70  64  83 NW7       29.90R
WORTHINGTON    CLEAR     68  62  81 NW8       29.93R
$$

IAZ001>003-012>014-020>022-031-032-NEZ013-014-SDZ071-241300-
NORTHWEST IOWA

CITY           SKY/WX    TMP DP  RH WIND       PRES   REMARKS
CHEROKEE       CLEAR     71  69  93 N6        29.90R
ESTHERVILLE    CLEAR     70  67  90 NW9       29.88R
LE MARS        CLEAR     68  66  94 N5        29.93R
SHELDON        CLEAR     68  68 100 NW6       29.92R
SIOUX CITY     CLEAR     73  66  78 NW7       29.90R
6HR MIN TEMP:  72; 6HR MAX TEMP:  82;

SPENCER        CLEAR     69  65  86 NW8       29.91R
6HR MIN TEMP:  68; 6HR MAX TEMP:  78;

STORM LAKE     CLEAR     72  66  83 N10       29.91R
$$

ABBREVIATIONS USED IN REMARKS
   TC - TEMPERATURE IN CELSIUS
  WCI - WIND CHILL INDEX
   HX - HEAT INDEX
  VSB - VISIBILITY





USA.gov is the U.S. government's official web portal to all federal, state and local government web resources and services.